Time,TemperatureF,DewpointF,PressureIn,WindDirection,WindDirectionDegrees,WindSpeedMPH,WindSpeedGustMPH,Humidity,HourlyPrecipIn,Conditions,Clouds,dailyrainin,SoftwareType,DateUTC
2013-04-29 00:00:00,52.4,49.8,29.84,South,180,7.0,20.0,91,0.00,,,-99.99,WeatherLink 5.6,2013-04-29 04:00:00,
2013-04-29 00:30:00,52.0,49.5,29.84,South,180,7.0,17.0,91,0.00,,,-99.99,WeatherLink 5.6,2013-04-29 04:30:00,
2013-04-29 01:00:00,51.9,49.6,29.85,South,180,6.0,16.0,92,0.00,,,-99.99,WeatherLink 5.6,2013-04-29 05:00:00,
2013-04-29 01:30:00,51.9,49.4,29.84,South,180,5.0,15.0,91,0.00,,,-99.99,WeatherLink 5.6,2013-04-29 05:30:00,
2013-04-29 02:00:00,51.7,49.2,29.83,South,180,5.0,14.0,91,0.00,,,-99.99,WeatherLink 5.6,2013-04-29 06:00:00,
2013-04-29 02:30:00,51.3,49.1,29.82,South,180,3.0,11.0,92,0.00,,,-99.99,WeatherLink 5.6,2013-04-29 06:30:00,
2013-04-29 03:00:00,51.4,48.9,29.82,South,180,5.0,16.0,91,0.00,,,-99.99,WeatherLink 5.6,2013-04-29 07:00:00,
2013-04-29 03:30:00,51.5,48.7,29.81,South,180,5.0,12.0,90,0.00,,,-99.99,WeatherLink 5.6,2013-04-29 07:30:00,
2013-04-29 04:00:00,50.9,48.1,29.82,South,180,3.0,11.0,90,0.00,,,-99.99,WeatherLink 5.6,2013-04-29 08:00:00,
2013-04-29 04:30:00,51.5,48.7,29.82,South,180,3.0,11.0,90,0.00,,,-99.99,WeatherLink 5.6,2013-04-29 08:30:00,
2013-04-29 05:00:00,51.5,48.7,29.83,South,180,3.0,11.0,90,0.00,,,-99.99,WeatherLink 5.6,2013-04-29 09:00:00,
2013-04-29 05:30:00,51.5,48.7,29.83,South,180,2.0,9.0,90,0.00,,,-99.99,WeatherLink 5.6,2013-04-29 09:30:00,
2013-04-29 06:00:00,51.4,48.9,29.82,South,180,4.0,13.0,91,0.00,,,-99.99,WeatherLink 5.6,2013-04-29 10:00:00,
2013-04-29 06:30:00,50.5,48.3,29.83,South,180,5.0,13.0,92,0.00,,,-99.99,WeatherLink 5.6,2013-04-29 10:30:00,
2013-04-29 07:00:00,50.6,48.7,29.84,South,180,3.0,13.0,93,0.00,,,-99.99,WeatherLink 5.6,2013-04-29 11:00:00,
2013-04-29 07:30:00,51.4,49.2,29.85,South,180,3.0,12.0,92,0.00,,,-99.99,WeatherLink 5.6,2013-04-29 11:30:00,
2013-04-29 08:00:00,51.4,49.4,29.85,South,180,4.0,11.0,93,0.00,,,-99.99,WeatherLink 5.6,2013-04-29 12:00:00,
2013-04-29 08:30:00,51.5,49.5,29.86,South,180,4.0,14.0,93,0.00,,,-99.99,WeatherLink 5.6,2013-04-29 12:30:00,
2013-04-29 09:00:00,51.5,49.8,29.86,South,180,3.0,14.0,94,0.00,,,-99.99,WeatherLink 5.6,2013-04-29 13:00:00,
2013-04-29 09:30:00,51.5,50.1,29.86,South,180,5.0,16.0,95,0.00,,,-99.99,WeatherLink 5.6,2013-04-29 13:30:00,
2013-04-29 10:00:00,51.5,50.1,29.87,South,180,3.0,10.0,95,0.00,,,-99.99,WeatherLink 5.6,2013-04-29 14:00:00,
2013-04-29 10:30:00,52.0,50.6,29.88,SSW,202,0.0,5.0,95,0.04,,,-99.99,WeatherLink 5.6,2013-04-29 14:30:00,
2013-04-29 11:00:00,51.7,50.6,29.88,WNW,292,2.0,11.0,96,0.06,,,-99.99,WeatherLink 5.6,2013-04-29 15:00:00,
2013-04-29 11:30:00,52.4,51.3,29.88,WSW,247,0.0,5.0,96,0.03,,,-99.99,WeatherLink 5.6,2013-04-29 15:30:00,
2013-04-29 12:00:00,53.5,52.1,29.88,WNW,292,1.0,6.0,95,0.01,,,-99.99,WeatherLink 5.6,2013-04-29 16:00:00,
2013-04-29 12:30:00,54.1,52.4,29.87,West,270,1.0,9.0,94,0.00,,,-99.99,WeatherLink 5.6,2013-04-29 16:30:00,
2013-04-29 13:00:00,54.5,51.3,29.88,WNW,292,1.0,7.0,89,0.00,,,-99.99,WeatherLink 5.6,2013-04-29 17:00:00,
2013-04-29 13:30:00,54.9,52.3,29.87,WSW,247,0.0,6.0,91,0.00,,,-99.99,WeatherLink 5.6,2013-04-29 17:30:00,
2013-04-29 14:00:00,55.0,52.4,29.87,South,180,1.0,4.0,91,0.00,,,-99.99,WeatherLink 5.6,2013-04-29 18:00:00,
2013-04-29 14:30:00,55.5,52.9,29.86,South,180,1.0,7.0,91,0.00,,,-99.99,WeatherLink 5.6,2013-04-29 18:30:00,
2013-04-29 15:00:00,57.0,54.1,29.85,South,180,1.0,5.0,90,0.00,,,-99.99,WeatherLink 5.6,2013-04-29 19:00:00,
2013-04-29 15:30:00,58.0,53.8,29.84,SSW,202,1.0,6.0,86,0.00,,,-99.99,WeatherLink 5.6,2013-04-29 19:30:00,
2013-04-29 16:00:00,58.3,54.1,29.83,South,180,0.0,5.0,86,0.00,,,-99.99,WeatherLink 5.6,2013-04-29 20:00:00,
2013-04-29 16:30:00,59.2,54.4,29.81,WSW,247,0.0,3.0,84,0.00,,,-99.99,WeatherLink 5.6,2013-04-29 20:30:00,
2013-04-29 17:00:00,57.7,53.2,29.82,NW,315,0.0,2.0,85,0.01,,,-99.99,WeatherLink 5.6,2013-04-29 21:00:00,
2013-04-29 17:30:00,58.6,54.4,29.82,North,-999,0.0,0.0,86,0.01,,,-99.99,WeatherLink 5.6,2013-04-29 21:30:00,
2013-04-29 18:00:00,59.0,53.8,29.82,North,-999,0.0,0.0,83,0.00,,,-99.99,WeatherLink 5.6,2013-04-29 22:00:00,
2013-04-29 18:30:00,59.1,53.9,29.82,North,-999,0.0,0.0,83,0.00,,,-99.99,WeatherLink 5.6,2013-04-29 22:30:00,
2013-04-29 19:00:00,59.3,53.5,29.82,North,-999,0.0,0.0,81,0.00,,,-99.99,WeatherLink 5.6,2013-04-29 23:00:00,
2013-04-29 19:30:00,59.0,53.2,29.82,North,-999,0.0,0.0,81,0.00,,,-99.99,WeatherLink 5.6,2013-04-29 23:30:00,
2013-04-29 20:00:00,58.3,52.5,29.83,North,-999,0.0,0.0,81,0.00,,,-99.99,WeatherLink 5.6,2013-04-30 00:00:00,
2013-04-29 20:30:00,57.3,52.5,29.83,NNE,22,0.0,2.0,84,0.00,,,-99.99,WeatherLink 5.6,2013-04-30 00:30:00,
2013-04-29 21:00:00,56.4,52.3,29.84,NE,45,0.0,1.0,86,0.00,,,-99.99,WeatherLink 5.6,2013-04-30 01:00:00,
2013-04-29 21:30:00,56.0,52.2,29.85,NE,45,0.0,2.0,87,0.00,,,-99.99,WeatherLink 5.6,2013-04-30 01:30:00,
2013-04-29 22:00:00,55.1,51.6,29.87,North,-999,0.0,0.0,88,0.00,,,-99.99,WeatherLink 5.6,2013-04-30 02:00:00,
2013-04-29 22:30:00,55.2,52.0,29.87,North,-999,0.0,0.0,89,0.00,,,-99.99,WeatherLink 5.6,2013-04-30 02:30:00,
2013-04-29 23:00:00,54.8,51.6,29.87,NE,45,0.0,2.0,89,0.00,,,-99.99,WeatherLink 5.6,2013-04-30 03:00:00,
2013-04-29 23:30:00,54.9,51.4,29.86,NE,45,0.0,2.0,88,0.00,,,-99.99,WeatherLink 5.6,2013-04-30 03:30:00,